Location: Rancho Del Sol Observatory
(38.7214°N, 120.6350°W)
Time: 20:27:31
(UTC-08:00)

A-11 Canister half - Pass Details

Date: 03 February 2020
Orbit: 1517 x 1683 km, 47.2° (Epoch: 17 February)

Event Time Altitude Azimuth Distance (km) Brightness Sun altitude
Rises 03:25:48 0° 300° (WNW) 4,684 - -43.2°
Reaches altitude 10° 03:28:52 10° 298° (WNW) 3,690 - -42.7°
Maximum altitude 03:38:03 70° 218° (SW) 1,599 - -40.9°
Exits shadow 03:41:26 43° 150° (SSE) 2,025 9.6 -40.3°
Drops below altitude 10° 03:47:13 10° 137° (SE) 3,690 11.3 -39.2°
Sets 03:50:17 0° 135° (SE) 4,684 11.9 -38.6°
